Location: *
(55.6049°S, 142.1985°W)
Time: 01:09:59
(UTC+00:00)

Cosmos 2058 - Pass Details

Date: 12 May 2021
Orbit: 561 x 584 km, 82.5° (Epoch: 18 June)

Event Time Altitude Azimuth Distance (km) Brightness Sun altitude
Exits shadow 15:53:05 16° 247° (WSW) 1,584 4.5 -11.2°
Maximum altitude 15:54:02 17° 263° (W) 1,528 4.4 -11.1°
Drops below altitude 10° 15:56:47 10° 304° (WNW) 1,926 5.2 -10.7°
Sets 15:59:36 0° 323° (NW) 2,820 6.2 -10.3°
